CW1490 Weather Reports


Display with metric or nautical units.
time (UTC)temp
F
wind
direction
speed
MPH
gust
MPH
rain 1hr
in
rain 24hr
in
rain mn
in
humidity
%
barometer
mb
20160506164446 68 58 9.0 14.0 0.00 0.00 0.00 58 1008.1
20160506162944 67 35 2.0 10.0 0.00 0.00 0.00 57 1008.2
20160506161441 66 60 3.0 12.0 0.00 0.00 0.00 60 1008.3
20160506155936 65 6 3.0 11.0 0.00 0.00 0.00 60 1008.4
20160506154433 64 38 3.0 8.0 0.00 0.00 0.00 61 1008.3
20160506152931 62 333 2.0 9.0 0.00 0.00 0.00 61 1008.4
20160506151429 62 350 4.0 9.0 0.00 0.00 0.00 63 1008.4
20160506145925 61 53 5.0 9.0 0.00 0.00 0.00 65 1008.4
20160506144423 60 47 4.0 11.0 0.00 0.00 0.00 65 1008.2
20160506142921 60 40 7.0 11.0 0.00 0.00 0.00 66 1008.3
20160506141417 59 66 5.0 10.0 0.00 0.00 0.00 68 1008.6
20160506135913 57 88 4.0 10.0 0.00 0.00 0.00 70 1008.4
20160506132906 56 57 7.0 12.0 0.00 0.00 0.00 70 1008.2
20160506131403 55 34 4.0 12.0 0.00 0.00 0.00 70 1008.3
20160506125900 55 60 6.0 12.0 0.00 0.00 0.00 72 1008.3
20160506124357 54 68 6.0 13.0 0.00 0.00 0.00 73 1008.2
20160506122854 54 64 10.0 15.0 0.00 0.00 0.00 74 1007.8
20160506121351 54 67 8.0 14.0 0.00 0.00 0.00 74 1007.6
20160506115847 53 52 6.0 12.0 0.00 0.00 0.00 78 1007.2
20160506114344 52 65 5.0 9.0 0.00 0.00 0.00 83 1007.3
20160506112839 51 49 2.0 6.0 0.00 0.00 0.00 85 1007.2
20160506111336 50 43 4.0 6.0 0.00 0.00 0.00 85 1007.2
20160506105832 50 3 3.0 5.0 0.00 0.00 0.00 87 1007.1
20160506104530 49 11 0.0 2.0 0.00 0.00 0.00 89 1007.4
20160506102827 48 24 1.0 5.0 0.00 0.00 0.00 91 1006.7
20160506101323 48 27 1.0 3.0 0.00 0.00 0.00 92 1006.6
20160506095819 48 44 0.0 4.0 0.00 0.00 0.00 92 1006.4
20160506094316 48 30 1.0 3.0 0.00 0.00 0.00 93 1006.1
20160506092815 48 57 2.0 6.0 0.00 0.00 0.00 93 1005.9
20160506091312 48 43 0.0 0.0 0.00 0.00 0.00 92 1006.0
20160506085811 48 43 0.0 0.0 0.00 0.00 0.00 92 1005.9
20160506084310 48 43 0.0 0.0 0.00 0.00 0.00 92 1005.9
20160506082808 48 43 0.0 0.0 0.00 0.00 0.00 91 1005.7
20160506081308 48 43 0.0 0.0 0.00 0.00 0.00 92 1005.6
20160506075807 48 43 0.0 2.0 0.00 0.00 0.00 92 1005.4
20160506074307 48 44 0.0 2.0 0.00 0.00 0.00 92 1005.3
20160506072806 48 49 0.0 0.0 0.00 0.00 0.00 92 1005.3
20160506071305 48 49 1.0 2.0 0.00 0.00 0.00 92 1005.0
20160506065805 49 49 0.0 0.0 0.00 0.00 0.00 92 1005.3
20160506064305 49 49 0.0 2.0 0.00 0.00 0.00 92 1005.1
20160506062804 49 55 2.0 3.0 0.00 0.00 0.00 92 1004.8
20160506061301 49 57 0.0 3.0 0.00 0.00 0.00 92 1005.0
20160506055800 49 61 0.0 0.0 0.00 0.00 0.00 93 1005.0
20160506054258 49 61 0.0 0.0 0.00 0.00 0.00 92 1005.0
20160506052758 49 61 0.0 0.0 0.00 0.00 0.00 92 1005.0
20160506051257 49 61 0.0 1.0 0.00 0.00 0.00 92 1004.9
20160506045756 49 61 0.0 0.0 0.00 0.00 0.00 92 1005.0
20160506044255 49 61 0.0 3.0 0.00 0.00 0.00 92 1005.1
20160506042752 49 58 0.0 0.0 0.00 0.00 0.00 92 1005.4
20160506041250 49 58 0.0 0.0 0.00 0.00 0.00 91 1005.6
20160506035748 49 58 0.0 2.0 0.00 0.05 0.00 91 1005.6
20160506034248 50 58 0.0 0.0 0.00 0.05 0.00 90 1005.7
20160506032847 50 58 0.0 0.0 0.00 0.05 0.00 90 1005.8
20160506031247 50 58 0.0 0.0 0.00 0.05 0.00 89 1005.9
20160506025747 50 58 0.0 0.0 0.00 0.06 0.00 89 1005.9
20160506024247 50 58 0.0 0.0 0.00 0.06 0.00 88 1005.8
20160506022746 51 58 0.0 0.0 0.00 0.06 0.00 87 1005.9
20160506021245 51 58 0.0 0.0 0.00 0.06 0.00 85 1005.9
20160506015745 51 58 0.0 2.0 0.00 0.06 0.00 83 1005.9
20160506014244 51 58 1.0 5.0 0.00 0.06 0.00 82 1005.9
20160506012743 52 61 2.0 4.0 0.00 0.06 0.00 82 1005.8
20160506011243 52 55 1.0 5.0 0.00 0.06 0.00 81 1005.9
20160506005743 52 51 3.0 5.0 0.00 0.07 0.00 81 1005.8
20160506004242 52 70 2.0 6.0 0.00 0.07 0.00 80 1005.9
20160506002742 53 83 2.0 5.0 0.00 0.07 0.00 80 1006.0
20160506001242 53 68 2.0 8.0 0.00 0.07 0.00 79 1006.0
20160505235741 53 73 1.0 6.0 0.00 0.07 0.00 79 1005.6
20160505234240 53 51 3.0 7.0 0.00 0.07 0.00 78 1005.6
20160505232739 54 62 2.0 9.0 0.00 0.07 0.00 78 1005.7
20160505231238 54 66 1.0 5.0 0.00 0.07 0.00 77 1005.8
20160505225738 54 78 0.0 6.0 0.00 0.07 0.00 77 1005.5
20160505224237 54 84 2.0 11.0 0.00 0.07 0.00 75 1005.4
20160505222735 55 86 7.0 11.0 0.00 0.07 0.00 75 1005.7
20160505221235 55 59 3.0 12.0 0.00 0.07 0.00 76 1005.6
20160505215734 55 53 5.0 13.0 0.00 0.09 0.00 77 1005.7
20160505214233 55 56 4.0 13.0 0.00 0.09 0.00 76 1005.8
20160505212732 55 40 7.0 13.0 0.00 0.09 0.00 76 1005.8
20160505211233 55 64 8.0 14.0 0.00 0.09 0.00 76 1005.9
20160505205732 55 45 5.0 12.0 0.00 0.09 0.00 78 1006.0
20160505204232 55 25 7.0 13.0 0.00 0.09 0.00 77 1005.8
20160505202729 55 32 4.0 11.0 0.00 0.09 0.00 78 1005.8
20160505201328 55 345 6.0 13.0 0.00 0.09 0.00 77 1006.0
20160505195728 55 57 9.0 13.0 0.00 0.11 0.00 77 1006.1
20160505194226 55 47 8.0 14.0 0.00 0.11 0.00 76 1006.0
20160505192724 55 49 10.0 14.0 0.00 0.11 0.00 76 1006.2
20160505191221 55 78 6.0 13.0 0.00 0.11 0.00 76 1006.6
20160505185720 55 28 7.0 11.0 0.00 0.12 0.00 78 1006.6
20160505184219 54 46 6.0 12.0 0.00 0.12 0.00 79 1006.6
20160505182717 54 46 4.0 10.0 0.00 0.12 0.00 79 1006.5
20160505181216 54 50 6.0 10.0 0.00 0.12 0.00 79 1006.6
20160505175714 54 57 5.0 11.0 0.00 0.13 0.00 81 1006.8
20160505174210 53 68 6.0 11.0 0.00 0.13 0.00 81 1007.0
20160505172707 53 53 4.0 6.0 0.00 0.13 0.00 83 1007.3
20160505171206 53 63 3.0 8.0 0.00 0.13 0.00 84 1007.5
20160505165704 52 68 3.0 7.0 0.00 0.21 0.00 83 1007.3